GW6548 Weather Reports


Display with metric or nautical units.
time (UTC)temp
F
wind
direction
speed
MPH
gust
MPH
rain 1hr
in
rain 24hr
in
rain mn
in
humidity
%
barometer
mb
20260503035117 58 33 1.0 3.0 0.00 0.00 0.00 49 1019.6
20260503034101 57 74 1.0 2.0 0.00 0.00 0.00 49 1019.5
20260503033022 58 54 0.0 2.0 0.00 0.00 0.00 49 1019.6
20260503032046 58 75 0.0 2.0 0.00 0.00 0.00 47 1019.6
20260503031112 58 18 0.0 2.0 0.00 0.00 0.00 48 1019.5
20260503030031 58 85 0.0 2.0 0.00 0.00 0.00 48 1019.7
20260503025135 58 0.0 0.0 0.00 0.00 0.00 49 1019.7
20260503024016 59 359 0.0 3.0 0.00 0.00 0.00 48 1019.7
20260503023040 59 16 0.0 3.0 0.00 0.00 0.00 48 1019.8
20260503022105 59 7 1.0 2.0 0.00 0.00 0.00 48 1019.9
20260503021105 59 35 0.0 1.0 0.00 0.00 0.00 47 1019.9
20260503020049 60 8 0.0 1.0 0.00 0.00 0.00 47 1020.1
20260503015114 60 19 0.0 1.0 0.00 0.00 0.00 46 1020.0
20260503014034 60 33 0.0 1.0 0.00 0.00 0.00 46 1020.1
20260503013139 60 68 0.0 1.0 0.00 0.00 0.00 46 1020.0
20260503012059 61 15 1.0 3.0 0.00 0.00 0.00 45 1020.0
20260503011124 61 12 1.0 2.0 0.00 0.00 0.00 46 1020.2
20260503010108 61 21 0.0 2.0 0.00 0.00 0.00 45 1020.3
20260503005028 61 15 0.0 2.0 0.00 0.00 0.00 45 1020.3
20260503004053 62 6 0.0 2.0 0.00 0.00 0.00 45 1020.2
20260503003117 62 3 1.0 3.0 0.00 0.00 0.00 43 1020.5
20260503002038 62 58 0.0 2.0 0.00 0.00 0.00 44 1020.5
20260503001142 63 19 1.0 3.0 0.00 0.00 0.00 43 1020.5
20260503000022 63 37 1.0 3.0 0.00 0.00 0.00 44 1020.7
20260502235047 63 22 1.0 2.0 0.00 0.00 0.00 43 1020.7
20260502234112 64 59 1.0 7.0 0.00 0.00 0.00 42 1020.7
20260502233032 63 273 1.0 3.0 0.00 0.00 0.00 43 1020.8
20260502232056 64 52 0.0 2.0 0.00 0.00 0.00 42 1020.7
20260502231017 65 47 2.0 4.0 0.00 0.00 0.00 41 1020.8
20260502230041 65 357 2.0 6.0 0.00 0.00 0.00 40 1020.8
20260502225105 65 23 1.0 6.0 0.00 0.00 0.00 40 1020.7
20260502224026 66 22 2.0 9.0 0.00 0.00 0.00 40 1020.6
20260502223130 66 4 2.0 7.0 0.00 0.00 0.00 40 1020.6
20260502222155 65 21 1.0 7.0 0.00 0.00 0.00 41 1020.4
20260502221035 66 9 2.0 9.0 0.00 0.00 0.00 40 1020.4
20260502220139 66 356 1.0 7.0 0.00 0.00 0.00 40 1020.5
20260502215100 66 355 2.0 8.0 0.00 0.00 0.00 40 1020.5
20260502214044 66 45 2.0 9.0 0.00 0.00 0.00 39 1020.4
20260502213109 67 359 3.0 8.0 0.00 0.00 0.00 39 1020.3
20260502212029 67 351 1.0 6.0 0.00 0.00 0.00 39 1020.2
20260502211054 67 18 1.0 7.0 0.00 0.00 0.00 38 1020.2
20260502210118 67 2 2.0 7.0 0.00 0.00 0.00 38 1020.1
20260502205119 67 10 2.0 8.0 0.00 0.00 0.00 38 1020.1
20260502204104 67 5 2.0 7.0 0.00 0.00 0.00 38 1020.1
20260502203023 68 7 1.0 6.0 0.00 0.00 0.00 38 1020.1
20260502202048 68 30 1.0 6.0 0.00 0.00 0.00 37 1020.0
20260502201112 68 73 2.0 7.0 0.00 0.00 0.00 37 1020.0
20260502200113 69 102 1.0 6.0 0.00 0.00 0.00 36 1019.9
20260502195057 69 1 3.0 8.0 0.00 0.00 0.00 35 1019.8
20260502194018 69 53 1.0 7.0 0.00 0.00 0.00 35 1019.7
20260502193041 69 36 2.0 10.0 0.00 0.00 0.00 35 1019.5
20260502192106 69 63 1.0 6.0 0.00 0.00 0.00 35 1019.6
20260502191027 69 62 1.0 6.0 0.00 0.00 0.00 35 1019.4
20260502190051 70 84 1.0 6.0 0.00 0.00 0.00 34 1019.2
20260502185116 70 73 1.0 3.0 0.00 0.00 0.00 34 1019.1
20260502184036 71 80 1.0 6.0 0.00 0.00 0.00 34 1019.0
20260502183101 71 73 1.0 3.0 0.00 0.00 0.00 33 1018.9
20260502182021 71 99 3.0 6.0 0.00 0.00 0.00 33 1018.7
20260502181046 71 115 2.0 7.0 0.00 0.00 0.00 33 1018.6
20260502180150 72 99 2.0 4.0 0.00 0.00 0.00 32 1018.6
20260502170104 75 105 2.0 9.0 0.00 0.00 0.00 27 1018.3
20260502164113 76 122 3.0 7.0 0.00 0.00 0.00 27 1018.2
20260502163114 76 113 2.0 7.0 0.00 0.00 0.00 26 1018.3
20260502162058 77 156 2.0 7.0 0.00 0.00 0.00 26 1018.3
20260502161019 77 93 2.0 7.0 0.00 0.00 0.00 26 1018.4
20260502160123 77 142 3.0 7.0 0.00 0.00 0.00 25 1018.5
20260502152116 79 129 2.0 6.0 0.00 0.00 0.00 24 1018.6
20260502151037 79 137 3.0 10.0 0.00 0.00 0.00 23 1018.4
20260502140120 80 125 3.0 8.0 0.00 0.00 0.00 23 1019.1
20260502123043 81 106 3.0 7.0 0.00 0.02 0.00 22 1020.0
20260502122147 79 27 1.0 3.0 0.00 0.02 0.00 25 1020.1
20260502121028 78 131 2.0 6.0 0.00 0.02 0.00 27 1020.5
20260502115156 77 111 2.0 4.0 0.00 0.02 0.00 29 1020.8
20260502114037 77 258 2.0 4.0 0.00 0.02 0.00 31 1020.8
20260502113102 76 308 1.0 3.0 0.00 0.02 0.00 32 1021.1
20260502112022 77 291 2.0 4.0 0.00 0.02 0.00 32 1021.3
20260502111047 75 320 1.0 4.0 0.00 0.02 0.00 33 1021.5
20260502110111 76 245 1.0 3.0 0.00 0.02 0.00 34 1021.7
20260502105031 75 355 0.0 2.0 0.00 0.02 0.00 33 1021.9
20260502104056 74 347 1.0 4.0 0.00 0.02 0.00 32 1022.2
20260502103016 74 28 1.0 2.0 0.00 0.02 0.00 35 1022.3
20260502102041 73 249 2.0 4.0 0.00 0.02 0.00 34 1022.6
20260502101105 73 337 2.0 3.0 0.00 0.02 0.00 35 1022.9
20260502100105 71 301 1.0 4.0 0.00 0.02 0.00 36 1023.0
20260502091020 68 291 1.0 3.0 0.00 0.02 0.00 41 1023.9
20260502071057 61 80 1.0 3.0 0.00 0.02 0.00 47 1025.7
20260502070057 60 85 1.0 6.0 0.00 0.02 0.00 46 1025.8
20260502065121 60 81 1.0 4.0 0.00 0.02 0.00 46 1025.8
20260502064106 59 91 1.0 4.0 0.00 0.02 0.00 49 1025.8
20260502063026 57 74 2.0 6.0 0.00 0.02 0.00 53 1025.9
20260502062051 56 65 1.0 2.0 0.00 0.02 0.00 54 1026.0
20260502061115 55 79 2.0 8.0 0.00 0.02 0.00 54 1026.1
20260502060035 53 110 2.0 6.0 0.00 0.02 0.00 59 1026.0
20260502055100 52 80 1.0 4.0 0.00 0.02 0.00 62 1026.1
20260502054020 51 58 1.0 2.0 0.00 0.02 0.00 63 1026.2
20260502053046 51 68 0.0 2.0 0.00 0.02 0.00 64 1026.3
20260502052109 51 79 0.0 2.0 0.00 0.02 0.00 64 1026.3
20260502051110 51 64 0.0 2.0 0.00 0.02 0.00 63 1026.3
20260502050054 51 71 0.0 1.0 0.00 0.02 0.00 63 1026.4
20260502045118 51 57 0.0 1.0 0.00 0.02 0.00 62 1026.5
20260502044039 51 51 0.0 2.0 0.00 0.02 0.00 62 1026.4
20260502043103 51 49 0.0 1.0 0.00 0.02 0.00 63 1026.4
20260502042023 52 106 1.0 3.0 0.00 0.02 0.00 61 1026.3
20260502041128 51 81 1.0 2.0 0.00 0.02 0.00 63 1026.3
20260502040112 51 79 1.0 1.0 0.00 0.02 0.00 63 1026.3